This demonstration page uses our WeatherBlox Daily Observations layout. Learn more.

Left ArrowRight Arrow

39.92423, -83.80882

Hourly Observations for February 18, 2016

Temp ( °F °C ) Dew Point ( °F °C ) Humidity (%) Winds ( mph kmh ) Pressure ( in mb ) Visibility ( mi km ) Precip ( " mm )
12:56 am 00:56 Cloudy 32 undefined 23 -5 69 69 W 5 7 30.39 1029 10 16 N/A
1:56 am 01:56 Mostly Cloudy 31 -0.5 24 -4.4 75 75 W 3 6 30.40 1030 10 16 N/A
2:56 am 02:56 Mostly Cloudy 31 -0.5 24 -4.4 75 75 WNW 3 6 30.41 1030 10 16 N/A
3:56 am 03:56 Cloudy 31 -0.5 25 -3.8 79 79 N 3 6 30.42 1030 10 16 N/A
4:56 am 04:56 Cloudy 30 -1.1 23 -5 75 75 N 3 6 30.43 1030 10 16 N/A
5:56 am 05:56 Mostly Cloudy 29 -1.6 23 -5 78 78 N N/A 30.46 1031 10 16 N/A
6:56 am 06:56 Partly Cloudy 27 -2.7 23 -5 84 84 N N/A 30.49 1032 10 16 N/A
7:56 am 07:56 Sunny 25 -3.8 22 -5.5 88 88 ESE 3 6 30.50 1033 8 13 N/A
8:56 am 08:56 Sunny 29 -1.6 25 -3.8 85 85 SE 3 6 30.52 1034 10 16 N/A
9:56 am 09:56 Sunny 32 undefined 24 -4.4 73 73 ESE 7 11 30.53 1034 10 16 N/A
10:56 am 10:56 Sunny 35 1.6 24 -4.4 65 65 ESE 7 11 30.54 1034 10 16 N/A
11:56 am 11:56 Sunny 36 2.2 25 -3.8 65 65 SSE 9 15 30.55 1035 10 16 N/A
12:56 pm 12:56 Sunny 37 2.7 27 -2.7 68 68 SE 10 17 30.52 1034 10 16 N/A
1:56 pm 13:56 Sunny 37 2.7 26 -3.3 65 65 SE 12 19 30.51 1033 10 16 N/A
2:56 pm 14:56 Sunny 37 2.7 26 -3.3 65 65 SSE 10 17 30.49 1033 10 16 N/A
3:56 pm 15:56 Sunny 37 2.7 27 -2.7 68 68 SE 12 19 30.46 1031 10 16 N/A
4:56 pm 16:56 Sunny 35 1.6 27 -2.7 73 73 ESE 13 20 30.43 1031 10 16 N/A
5:56 pm 17:56 Sunny 34 1.1 27 -2.7 76 76 ESE 10 17 30.42 1030 10 16 N/A
6:56 pm 18:56 Clear 33 0.5 26 -3.3 76 76 ESE 9 15 30.41 1030 10 16 N/A
7:56 pm 19:56 Clear 34 1.1 27 -2.7 76 76 ESE 12 19 30.39 1029 10 16 N/A
8:56 pm 20:56 Mostly Cloudy 35 1.6 26 -3.3 70 70 SE 13 20 30.38 1029 10 16 N/A
9:56 pm 21:56 Cloudy 35 1.6 26 -3.3 70 70 SE 14 22 30.35 1028 10 16 N/A
10:56 pm 22:56 Mostly Clear 35 1.6 27 -2.7 73 73 SE 13 20 30.31 1027 10 16 N/A
11:56 pm 23:56 Clear 35 1.6 27 -2.7 73 73 SE 14 22 30.27 1025 10 16 N/A

Powered by AerisWeather